Henderson, NV

12:03 PM PDT on June 26, 2017 (GMT -0700)
Henderson

Weather History for KHND - October, 2012

Change the Weather History Date:

Sunday, October 14, 2012

  Actual Average (KLAS) Record (KLAS)
Temperature  
Mean Temperature 68 °F -  
Max Temperature 81 °F 81 °F 96 °F (1950)
Min Temperature 54 °F 55 °F 42 °F (1981)
Cooling Degree Days 2    
Growing Degree Days 18 (Base 50)    
Moisture  
Dew Point 47 °F    
Average Humidity 53    
Maximum Humidity 86    
Minimum Humidity 24    
Precipitation  
Precipitation 0.00 in - - ()
Sea Level Pressure  
Sea Level Pressure 30.08 in    
Wind  
Wind Speed 3 mph (East)    
Max Wind Speed 10 mph    
Max Gust Speed -    
Visibility 10 miles    
Events      
Averages and records for this station are not official NWS values.
T = Trace of Precipitation, MM = Missing Value Source: NWS Daily Summary

Daily Weather History Graph

Daily Weather History Graph

Search for Another Location

Airport or City:

Trip Planner

Search our weather history database for the weather conditions in past years. The results will help you decide how hot, cold, wet, or windy it might be!

Date:

Astronomy

Oct. 14, 2012 Rise Set
Actual Time 6:46 AM PDT 6:05 PM PDT
Civil Twilight 6:21 AM PDT 6:31 PM PDT
Nautical Twilight 5:51 AM PDT 7:00 PM PDT
Astronomical Twilight 5:21 AM PDT 7:30 PM PDT
Moon 5:51 AM PDT (10/14) 5:28 PM PDT (10/14)
Length of Visible Light 12h 09m
Length of Day
11h 18m
Waning Crescent, 1% of the Moon is Illuminated
Oct 14
Waning Crescent
Oct 15
New
Oct 21
First Quarter
Oct 29
Full
Nov 6
Last Quarter

Hourly Weather History & Observations

Time (PDT) Temp. Dew Point Humidity Pressure Visibility Wind Dir Wind Speed Gust Speed Precip Events Conditions
12:56 AM 56.8 °F 52.0 °F 84% 30.09 in 10.0 mi Calm Calm - N/A   Clear
1:56 AM 55.9 °F 50.9 °F 83% 30.11 in 10.0 mi Calm Calm - N/A   Clear
2:56 AM 55.9 °F 50.0 °F 80% 30.10 in 10.0 mi SSE 8.1 mph - N/A   Clear
4:56 AM 55.9 °F 48.9 °F 77% 30.12 in 10.0 mi SSE 8.1 mph - N/A   Clear
5:56 AM 54.0 °F 50.0 °F 86% 30.14 in 10.0 mi SSE 3.5 mph - N/A   Clear
6:56 AM 54.0 °F 48.9 °F 83% 30.16 in 10.0 mi Calm Calm - N/A   Clear
7:56 AM 57.9 °F 50.9 °F 77% 30.17 in 10.0 mi Calm Calm - N/A   Clear
8:56 AM 64.9 °F 50.0 °F 58% 30.18 in 10.0 mi Calm Calm - N/A   Clear
9:56 AM 70.0 °F 47.8 °F 45% 30.17 in 10.0 mi Calm Calm - N/A   Clear
10:56 AM 72.9 °F 46.9 °F 40% 30.15 in 10.0 mi Calm Calm - N/A   Clear
11:56 AM 74.8 °F 45.9 °F 36% 30.13 in 10.0 mi NNE 6.9 mph - N/A   Clear
12:56 PM 77.0 °F 45.0 °F 32% 30.09 in 10.0 mi North 8.1 mph - N/A   Clear
1:56 PM 79.0 °F 43.0 °F 28% 30.06 in 10.0 mi NNE 10.4 mph - N/A   Clear
2:56 PM 81.0 °F 41.0 °F 24% 30.04 in 10.0 mi NNE 10.4 mph - N/A   Clear
3:56 PM 79.9 °F 41.9 °F 26% 30.02 in 10.0 mi North 10.4 mph - N/A   Clear
4:56 PM 79.9 °F 39.9 °F 24% 30.01 in 10.0 mi NNE 6.9 mph - N/A   Clear
5:56 PM 75.9 °F 41.9 °F 30% 30.01 in 10.0 mi Calm Calm - N/A   Clear
6:56 PM 70.9 °F 45.0 °F 39% 30.02 in 10.0 mi Calm Calm - N/A   Clear
7:56 PM 66.9 °F 46.9 °F 49% 30.03 in 10.0 mi SSE 6.9 mph - N/A   Clear
8:56 PM 66.9 °F 45.0 °F 45% 30.02 in 10.0 mi Calm Calm - N/A   Clear
10:56 PM 61.9 °F 46.9 °F 58% 30.02 in 10.0 mi SSE 9.2 mph - N/A   Clear
11:56 PM 61.0 °F 47.8 °F 62% 30.01 in 10.0 mi South 8.1 mph - N/A   Clear